Wetbulb
54.08 55.44 56.31 56.15 56.51 56.90 57.66 58.84 59.21 59.53 59.81 59.90 59.96 59.94 59.88 59.50 59.13 58.91 58.73 58.58 58.00 57.42 57.10 56.85 56.78 56.85 56.98 56.95 56.86 56.67 56.33 56.10 56.03 55.93 55.84 55.41 54.92 54.67 54.51 54.31 54.12 53.89 53.69 53.55 53.45 53.44 53.44 53.46 53.31 53.20 52.98 52.98 52.57 52.20 51.97 52.03 51.55 51.41 51.51 51.61 51.71 51.52 50.95 50.42 50.38 50.53 50.86 51.25 51.38
54.92 55.69 56.19 56.65 57.03 57.57 58.22 58.71 58.86 59.14 59.46 59.91 60.04 59.94 59.65 59.36 59.01 58.69 58.51 58.27 57.88 57.50 57.17 56.88 56.68 56.61 56.56 56.71 56.62 56.33 55.91 55.61 55.45 55.45 55.47 55.20 54.97 54.73 54.49 54.33 54.21 54.10 53.98 53.66 53.58 53.61 53.67 53.51 53.38 53.21 53.10 52.96 52.66 52.21 52.08 52.32 52.16 52.01 51.80 51.68 51.92 51.80 51.46 50.97 51.15 51.52 51.87 51.82 51.10
55.11 55.62 55.98 56.34 56.84 57.65 58.20 58.10 58.33 58.61 59.01 59.64 59.81 59.66 59.38 59.04 58.82 58.56 58.38 58.28 58.02 57.59 57.11 56.63 56.37 56.29 56.27 56.33 56.27 56.04 55.66 55.24 55.25 55.15 55.19 55.18 54.99 54.71 54.49 54.41 54.34 54.27 54.16 53.88 53.85 53.86 53.83 53.77 53.70 53.56 53.33 53.01 52.69 52.34 52.16 51.92 52.19 52.22 52.04 51.81 52.06 52.13 52.09 52.16 52.13 52.17 52.08 51.53 50.33
54.81 55.22 55.68 56.04 56.97 57.69 58.26 58.15 58.24 58.56 59.02 59.29 59.27 59.16 59.01 58.82 58.69 58.51 58.34 58.14 57.87 57.37 56.79 56.28 56.22 56.19 56.15 56.06 55.90 55.65 55.47 55.21 55.09 54.93 54.93 55.04 54.79 54.63 54.49 54.46 54.30 54.09 54.04 54.04 54.04 53.98 54.03 53.92 53.89 53.75 53.43 52.94 52.56 52.36 52.31 52.37 52.31 52.43 52.40 52.06 52.41 52.47 52.59 53.00 52.58 52.24 51.61 50.40 49.10
54.14 54.87 55.59 56.17 57.00 57.83 58.36 58.46 58.56 58.69 58.83 58.87 58.63 58.58 58.48 58.42 58.34 58.21 58.03 57.83 57.50 57.08 56.69 56.22 56.15 56.09 56.07 55.93 55.65 55.35 55.15 55.07 55.04 54.86 54.77 54.85 54.75 54.60 54.50 54.45 54.18 54.08 54.03 54.03 54.07 54.13 54.18 54.04 54.07 53.83 53.50 53.17 52.85 52.64 52.44 52.58 52.76 52.77 52.69 52.76 52.87 52.90 52.85 52.49 51.80 50.97 50.09 48.95 47.69
53.21 54.19 55.41 56.71 57.23 57.80 58.33 58.69 58.78 58.74 58.69 58.45 58.16 57.94 57.81 57.85 57.85 57.71 57.53 57.35 57.22 56.99 56.67 56.18 56.07 56.01 55.89 55.68 55.51 55.24 55.02 54.88 54.85 54.79 54.70 54.75 54.66 54.57 54.35 54.23 54.17 54.11 54.16 54.17 54.17 54.25 54.29 54.21 54.05 53.82 53.59 53.33 52.98 52.91 53.08 53.30 53.22 53.05 52.80 52.71 52.49 52.19 51.67 50.86 50.33 49.62 48.78 47.68 46.51
52.80 54.06 55.46 56.72 57.13 57.73 58.34 58.66 58.79 58.74 58.49 58.23 57.76 57.41 57.30 57.35 57.35 57.30 57.25 57.20 57.08 56.85 56.64 56.36 56.15 55.94 55.66 55.51 55.27 55.14 54.99 54.85 54.67 54.62 54.61 54.60 54.49 54.44 54.24 54.13 54.05 54.12 54.18 54.32 54.29 54.25 54.29 54.28 53.97 53.77 53.62 53.65 53.40 53.31 53.29 53.45 53.05 52.59 52.10 51.56 51.24 50.94 50.33 49.55 49.27 48.77 47.84 46.46 45.47
53.06 54.42 55.64 56.37 57.01 57.84 58.39 58.57 58.56 58.42 58.13 57.82 57.41 57.14 57.01 57.06 56.97 56.93 56.93 56.93 56.73 56.59 56.60 56.47 56.25 55.94 55.58 55.43 55.20 55.04 54.91 54.77 54.59 54.51 54.48 54.51 54.40 54.21 54.15 54.04 54.05 54.10 54.24 54.44 54.39 54.30 54.21 54.22 53.83 53.52 53.32 53.44 53.27 52.98 52.73 52.57 52.30 51.66 50.99 50.14 49.89 49.32 48.78 48.79 48.10 47.74 47.17 45.89 44.86
53.35 54.65 55.78 55.88 56.98 57.98 58.61 58.47 58.28 58.00 57.72 57.30 57.06 56.97 56.83 56.70 56.65 56.61 56.62 56.54 56.60 56.62 56.58 56.51 56.24 55.96 55.70 55.47 55.25 55.12 54.89 54.72 54.63 54.60 54.59 54.52 54.33 54.05 53.94 53.97 54.05 54.14 54.32 54.49 54.43 54.24 54.05 53.95 53.64 53.35 53.17 53.03 52.72 52.47 52.13 51.80 51.28 50.66 49.93 49.22 48.65 48.13 47.74 47.72 47.29 46.93 46.40 45.46 44.44
53.76 54.71 55.30 55.26 56.72 57.99 58.71 58.29 58.05 57.76 57.30 56.94 56.75 56.61 56.61 56.61 56.51 56.52 56.57 56.66 56.75 56.69 56.61 56.40 56.17 55.92 55.69 55.52 55.34 55.13 54.95 54.82 54.71 54.65 54.52 54.48 54.16 53.98 53.88 54.05 54.08 54.15 54.34 54.53 54.44 54.11 53.69 53.58 53.19 52.91 52.69 52.49 52.03 51.71 51.36 51.04 50.37 49.69 49.05 48.74 48.05 47.46 47.03 47.12 46.94 46.50 45.76 44.95 43.75
54.06 54.56 54.76 54.68 56.68 57.99 58.52 57.97 57.69 57.36 56.94 56.63 56.49 56.44 56.38 56.43 56.43 56.52 56.65 56.83 56.64 56.47 56.38 56.36 56.16 56.00 55.75 55.48 55.47 55.30 55.05 54.95 54.77 54.76 54.62 54.44 54.21 54.00 53.97 54.14 54.21 54.34 54.42 54.35 54.15 53.89 53.51 53.17 52.65 52.19 51.96 51.90 51.45 51.11 50.61 50.12 49.52 48.81 48.22 47.95 47.48 47.06 46.81 46.51 46.34 45.77 44.95 43.80 42.57
54.14 54.29 54.35 54.58 56.90 58.12 58.16 57.46 57.10 56.82 56.54 56.26 56.22 56.21 56.26 56.30 56.43 56.56 56.65 56.55 56.30 56.26 56.25 56.42 56.18 56.00 55.83 55.76 55.57 55.47 55.27 55.15 55.10 55.01 54.78 54.35 54.17 54.13 54.09 54.24 54.39 54.34 54.23 53.91 53.80 53.55 53.14 52.67 52.21 51.74 51.33 51.19 51.09 50.67 49.96 49.27 48.77 48.19 47.59 47.08 46.91 46.71 46.46 46.03 45.56 44.91 43.97 42.62 41.45
54.09 53.97 54.07 54.66 57.21 57.98 57.70 57.01 56.65 56.46 56.18 56.04 56.08 56.13 56.18 56.31 56.48 56.56 56.46 56.29 56.17 56.18 56.31 56.43 56.34 56.11 55.99 55.87 55.74 55.59 55.44 55.32 55.28 55.14 54.99 54.45 54.28 54.21 54.25 54.35 54.34 54.16 53.86 53.53 53.30 53.09 52.75 52.31 51.80 51.35 50.89 50.60 50.38 49.95 49.41 48.82 48.41 47.77 47.23 46.65 46.44 46.20 45.77 45.34 44.78 43.88 42.79 41.38 40.52
53.99 53.83 54.07 55.21 57.49 57.80 57.20 56.65 56.38 56.24 56.00 55.90 56.04 56.13 56.23 56.32 56.48 56.56 56.47 56.20 56.17 56.18 56.23 56.31 56.21 56.16 56.13 56.00 55.85 55.73 55.61 55.55 55.27 54.99 54.65 54.39 54.39 54.42 54.41 54.36 54.05 53.75 53.55 53.22 52.96 52.62 52.36 52.08 51.64 51.20 50.61 50.07 49.68 49.32 49.01 48.67 48.17 47.59 47.05 46.52 46.10 45.72 45.29 44.86 43.92 42.79 41.46 40.19 39.46
53.86 53.74 54.34 56.26 57.67 57.57 56.83 56.41 56.24 56.10 55.95 55.91 56.09 56.18 56.27 56.37 56.54 56.62 56.48 56.25 56.26 56.27 56.28 56.24 56.14 56.17 56.19 56.16 55.96 55.76 55.68 55.47 55.21 54.84 54.50 54.40 54.59 54.56 54.46 54.18 53.69 53.41 53.16 52.96 52.70 52.42 52.14 51.86 51.54 51.03 50.50 49.74 49.31 49.04 48.82 48.52 47.99 47.54 47.00 46.42 45.97 45.46 44.82 43.92 42.83 41.62 40.48 39.30 38.62
53.97 54.11 55.11 57.08 57.53 57.15 56.55 56.36 56.28 56.15 56.00 56.01 56.13 56.27 56.36 56.46 56.69 56.63 56.53 56.30 56.31 56.37 56.28 56.06 56.01 56.04 56.06 56.02 55.86 55.77 55.68 55.37 55.01 54.71 54.60 54.61 54.61 54.51 54.19 53.76 53.41 53.16 52.95 52.62 52.41 52.21 51.96 51.67 51.45 50.91 50.33 49.70 49.40 49.05 48.72 48.39 47.85 47.40 46.83 46.29 45.67 44.95 44.10 43.16 41.91 40.76 39.79 39.03 38.16
54.20 54.75 55.98 57.41 57.16 56.78 56.40 56.36 56.28 56.24 56.10 56.10 56.23 56.36 56.46 56.56 56.60 56.60 56.45 56.35 56.32 56.19 56.06 56.01 55.95 55.89 55.74 55.67 55.69 55.72 55.72 55.44 55.11 54.91 54.87 54.77 54.64 54.21 53.82 53.46 53.22 52.92 52.70 52.42 52.09 51.72 51.43 51.33 51.13 50.74 50.32 49.90 49.60 49.23 48.83 48.34 47.80 47.06 46.32 45.66 44.98 44.14 43.33 42.62 41.34 40.24 39.36 38.70 37.68
54.92 55.61 56.67 57.36 56.88 56.50 56.40 56.31 56.23 56.18 56.14 56.23 56.28 56.46 56.55 56.60 56.56 56.51 56.46 56.40 56.31 56.05 55.97 55.88 55.95 55.83 55.63 55.44 55.56 55.72 55.80 55.67 55.42 55.17 54.98 54.74 54.39 54.05 53.63 53.26 53.02 52.80 52.50 52.20 51.85 51.34 51.05 50.86 50.78 50.62 50.44 50.18 49.78 49.25 48.51 47.78 46.95 46.09 45.18 44.47 43.59 42.70 41.91 41.12 40.20 39.45 38.80 38.07 37.34
56.06 56.44 56.76 56.94 56.60 56.45 56.35 56.26 56.27 56.23 56.28 56.42 56.46 56.51 56.55 56.60 56.55 56.42 56.33 56.37 56.31 56.18 55.95 55.88 55.95 55.78 55.71 55.69 55.70 55.80 55.90 56.11 55.58 55.10 54.88 54.66 54.31 53.91 53.41 53.10 52.77 52.56 52.33 51.95 51.58 51.28 51.05 50.98 50.82 50.67 50.33 49.88 49.10 48.24 47.31 46.37 45.42 44.47 43.55 42.62 41.66 40.70 39.93 39.18 38.70 38.34 38.05 37.52 37.34
56.71 56.72 56.67 56.56 56.45 56.35 56.30 56.26 56.36 56.36 56.41 56.51 56.46 56.46 56.42 56.51 56.45 56.28 56.10 56.16 56.33 56.31 56.18 55.96 55.91 55.80 55.86 56.08 56.28 56.14 56.02 56.46 55.49 54.99 54.60 54.45 54.05 53.66 53.21 52.82 52.53 52.27 52.04 51.82 51.48 51.33 51.21 51.08 50.77 50.13 49.48 48.51 47.42 46.36 45.42 44.47 43.50 42.46 41.51 40.66 39.60 38.71 38.09 37.74 37.54 37.48 37.58 37.85 37.62
56.67 56.53 56.52 56.54 56.38 56.38 56.39 56.44 56.45 56.40 56.46 56.46 56.42 56.33 56.33 56.37 56.32 56.23 56.15 56.20 56.42 56.41 56.23 56.05 56.00 56.04 56.07 56.28 56.25 56.10 55.99 56.10 55.31 54.82 54.45 54.21 53.78 53.37 53.10 52.77 52.48 52.17 51.99 51.76 51.52 51.37 51.08 50.71 49.95 49.09 48.08 47.01 45.92 44.97 43.96 43.00 41.80 40.62 39.66 39.01 38.07 37.41 36.99 37.01 37.06 37.15 37.38 37.81 37.25
56.35 56.43 56.46 56.48 56.43 56.43 56.48 56.53 56.54 56.45 56.37 56.33 56.28 56.28 56.28 56.28 56.28 56.28 56.33 56.46 56.41 56.28 56.15 56.10 56.14 56.13 56.11 56.11 55.97 55.84 55.68 55.41 54.97 54.65 54.34 53.93 53.58 53.25 53.07 52.82 52.33 51.91 51.57 51.35 51.14 50.77 50.20 49.49 48.55 47.63 46.67 45.79 44.88 44.05 43.13 42.01 40.55 39.23 38.18 37.34 36.89 36.55 36.48 36.56 36.67 36.78 36.82 36.88 36.57
56.35 56.47 56.55 56.63 56.58 56.53 56.45 56.45 56.41 56.32 56.23 56.15 56.19 56.19 56.14 56.19 56.28 56.37 56.41 56.41 56.33 56.24 56.15 56.29 56.28 56.22 56.10 56.08 55.79 55.52 55.14 54.73 54.41 54.19 53.95 53.58 53.19 52.94 52.77 52.54 51.96 51.34 50.89 50.59 49.90 49.21 48.48 47.73 46.96 46.23 45.61 45.05 44.09 43.21 42.30 41.12 39.71 38.35 37.20 36.37 35.96 35.77 35.74 35.78 35.77 35.87 36.00 36.13 36.35
56.38 56.46 56.60 56.69 56.59 56.50 56.41 56.36 56.23 56.05 56.01 56.01 56.05 56.10 56.14 56.23 56.28 56.41 56.41 56.41 56.33 56.28 56.28 56.38 56.28 56.21 56.03 55.97 55.63 55.14 54.67 54.19 53.69 53.39 53.19 52.97 52.73 52.44 52.19 51.92 51.28 50.69 50.09 49.71 49.15 48.51 47.72 46.90 46.02 45.42 44.95 44.49 43.54 42.42 41.24 39.85 38.57 37.44 36.48 35.73 35.23 34.89 34.76 34.78 34.95 35.30 35.77 36.12 36.61
56.42 56.51 56.55 56.55 56.46 56.41 56.37 56.14 56.01 55.92 55.92 56.01 56.14 56.18 56.18 56.27 56.32 56.37 56.28 56.24 56.29 56.24 56.23 56.15 56.00 55.93 55.85 55.59 55.26 54.91 54.35 53.63 53.10 52.69 52.41 52.24 52.15 51.83 51.56 51.08 50.42 49.87 49.54 49.56 49.96 49.72 49.01 47.97 46.77 45.74 44.75 43.90 42.71 41.44 40.30 39.08 38.08 37.24 36.43 35.66 34.94 34.46 34.24 34.35 34.71 35.27 35.94 36.77 37.32
56.41 56.41 56.41 56.36 56.31 56.18 56.00 55.91 55.91 55.91 55.95 56.09 56.18 56.18 56.18 56.23 56.32 56.19 56.06 55.93 56.01 56.04 55.88 55.80 55.68 55.54 55.34 55.13 54.82 54.38 53.90 53.26 52.82 52.37 51.96 51.58 51.23 50.83 50.38 49.90 49.45 49.12 49.14 49.89 50.44 50.42 50.05 49.47 48.25 46.62 44.89 43.32 42.18 41.04 39.99 38.91 38.04 37.22 36.41 35.59 34.98 34.54 34.34 34.47 34.79 35.51 36.38 37.34 37.90
56.28 56.24 56.23 56.27 56.13 55.95 55.86 55.91 55.95 55.95 55.95 56.00 55.95 55.95 56.00 56.14 56.00 55.92 55.65 55.57 55.63 55.60 55.49 55.41 55.21 55.04 54.80 54.69 54.14 53.62 53.15 52.66 52.32 51.90 51.35 50.75 49.99 49.32 48.94 48.77 48.68 48.82 49.35 50.50 50.92 50.80 50.43 49.85 48.77 47.19 45.25 43.00 41.97 40.87 39.73 38.66 37.57 36.82 36.04 35.28 34.85 34.65 34.54 34.48 34.86 35.50 36.26 36.98 37.51
56.01 56.01 56.05 56.00 55.87 55.73 55.78 55.86 55.82 55.68 55.68 55.73 55.73 55.68 55.68 55.68 55.55 55.38 55.25 55.20 55.17 55.11 55.02 54.94 54.90 54.87 54.61 54.19 53.61 52.91 52.39 51.97 51.63 51.07 50.34 49.63 48.97 48.52 48.19 48.20 48.37 49.02 49.97 51.07 51.13 50.80 50.21 49.51 48.57 47.25 45.60 43.38 41.59 40.28 39.26 38.26 37.40 36.52 35.76 35.10 34.86 34.73 34.69 34.79 35.25 35.67 36.01 36.45 36.71
55.83 55.83 55.83 55.70 55.57 55.57 55.61 55.61 55.52 55.47 55.42 55.46 55.46 55.36 55.28 55.10 54.97 54.83 54.75 54.79 54.64 54.46 54.43 54.53 54.66 54.62 54.20 53.58 52.80 52.19 51.63 51.16 50.64 49.96 49.30 48.59 48.15 47.95 47.84 47.89 48.23 49.27 50.31 51.21 50.92 50.42 49.81 49.07 48.12 47.09 45.82 44.09 41.80 40.44 39.47 38.47 37.38 36.48 35.81 35.33 35.07 35.13 35.19 35.17 35.34 35.60 35.86 36.02 36.10
55.60 55.56 55.52 55.30 55.26 55.26 55.26 55.21 55.21 55.20 55.20 55.10 55.05 54.87 54.65 54.47 54.25 54.16 54.07 54.01 53.97 54.02 54.07 54.24 54.08 53.43 52.78 52.30 51.81 51.23 50.69 50.22 49.80 49.21 48.60 47.86 47.53 47.41 47.50 47.77 48.16 49.02 49.93 50.70 50.32 49.83 49.22 48.52 47.66 46.76 45.69 44.34 42.05 40.37 39.08 38.09 37.14 36.45 35.91 35.70 35.16 34.87 34.65 34.29 34.25 34.54 35.01 35.33 35.44
55.34 55.25 55.11 54.93 54.90 54.90 54.90 54.90 55.03 54.93 54.89 54.75 54.52 54.24 54.02 53.75 53.57 53.44 53.48 53.43 53.43 53.52 53.54 53.49 52.73 51.99 51.47 51.33 50.98 50.42 49.90 49.61 49.18 48.64 48.11 47.53 47.33 47.21 47.08 47.26 47.52 48.30 49.24 50.06 49.64 49.19 48.62 48.01 47.27 46.42 45.48 44.34 42.13 40.26 38.86 38.00 37.25 36.52 35.82 35.40 34.79 34.39 34.21 34.14 34.16 34.43 34.87 35.13 35.26
54.93 54.89 54.71 54.48 54.40 54.40 54.50 54.63 54.58 54.44 54.35 54.12 53.84 53.62 53.30 53.03 52.94 52.99 53.12 53.11 53.10 52.98 52.66 52.17 51.49 51.05 50.77 50.61 50.25 49.90 49.41 49.00 48.53 48.03 47.61 47.11 46.77 46.56 46.52 46.60 46.82 47.65 48.64 49.45 49.08 48.76 48.19 47.67 46.89 46.15 45.17 44.00 41.81 39.78 38.40 37.99 37.43 36.66 35.79 34.98 34.76 34.86 35.00 35.08 35.10 35.36 35.65 36.00 35.82
54.48 54.30 54.16 53.90 53.86 53.91 54.00 53.99 53.95 53.85 53.67 53.40 53.17 52.90 52.68 52.55 52.63 52.76 52.83 52.99 52.71 52.16 51.62 51.14 50.84 50.50 50.21 49.95 49.61 49.18 48.73 48.33 47.87 47.54 47.24 46.77 46.38 46.04 45.95 46.04 46.39 47.43 48.55 49.09 48.73 48.24 47.71 47.06 46.28 45.42 44.36 43.16 40.68 38.73 37.61 37.43 37.10 36.49 35.74 35.04 34.81 35.04 35.28 35.23 35.74 36.33 36.71 36.61 36.20
53.99 53.76 53.54 53.31 53.23 53.23 53.27 53.32 53.27 53.18 52.95 52.82 52.64 52.45 52.32 52.27 52.17 52.24 52.35 52.31 51.96 51.51 51.18 50.93 50.70 50.44 50.09 49.75 49.25 48.69 48.21 47.87 47.32 46.81 46.38 46.08 45.82 45.55 45.47 45.47 46.12 47.38 48.50 48.61 48.25 47.71 47.10 46.32 45.41 44.48 43.44 42.09 39.52 37.75 36.79 36.41 36.38 36.06 35.73 35.18 34.73 34.85 35.23 35.70 36.27 36.76 37.04 36.83 36.39
53.35 53.08 52.91 52.82 52.73 52.73 52.73 52.68 52.68 52.50 52.32 52.05 51.96 51.91 51.86 51.77 51.62 51.60 51.47 51.36 51.23 51.04 50.92 50.81 50.66 50.39 49.95 49.57 49.03 48.34 47.79 47.15 46.68 46.25 45.95 45.69 45.42 45.16 44.93 44.98 45.73 47.04 48.06 47.95 47.54 46.97 46.32 45.58 44.65 43.69 42.42 40.80 38.44 37.06 36.26 35.86 35.74 35.57 35.34 35.20 35.19 35.36 35.75 36.05 36.50 36.91 37.18 36.96 36.53
52.94 52.72 52.45 52.37 52.41 52.32 52.23 52.18 52.00 51.82 51.55 51.28 51.20 51.15 51.14 51.18 51.30 51.22 51.09 50.81 50.68 50.56 50.35 50.20 50.06 49.66 49.26 48.78 48.47 48.01 47.41 46.77 46.30 45.99 45.73 45.47 45.07 44.71 44.49 44.58 45.29 46.34 47.15 47.17 46.77 46.20 45.59 44.91 44.03 43.04 41.52 39.49 37.72 36.77 36.37 36.02 35.87 35.53 35.38 35.42 35.62 35.82 36.11 36.29 36.60 36.98 37.09 36.87 36.41
52.68 52.41 52.23 52.01 51.92 51.83 51.78 51.55 51.37 51.06 50.84 50.66 50.61 50.61 50.64 50.67 50.84 50.84 50.76 50.59 50.30 50.01 49.71 49.62 49.31 48.86 48.51 48.20 47.81 47.46 47.12 46.73 46.21 45.82 45.51 45.33 44.93 44.54 44.27 44.32 44.64 45.30 46.03 46.35 46.04 45.61 45.01 44.46 43.63 42.46 40.81 38.55 37.34 36.82 36.62 36.50 36.43 36.23 36.13 36.20 36.14 36.19 36.48 36.91 36.86 36.76 36.63 36.43 36.46
52.50 52.32 51.96 51.69 51.47 51.33 51.20 51.06 50.75 50.43 50.35 50.30 50.34 50.42 50.50 50.43 50.32 50.34 50.31 50.11 49.87 49.45 49.11 48.94 48.58 48.31 48.09 47.91 47.56 47.21 46.96 46.74 46.26 45.77 45.42 45.20 44.94 44.59 44.24 43.89 43.94 44.39 45.08 45.80 45.58 45.19 44.68 44.13 43.46 42.33 40.62 38.27 37.43 37.20 37.14 37.05 36.82 36.63 36.70 36.92 36.76 36.46 36.47 37.09 37.03 36.97 36.99 37.24 38.65
52.12 51.80 51.53 51.17 50.96 50.78 50.65 50.47 50.29 50.16 50.12 50.07 50.15 50.13 50.08 50.02 49.95 49.94 49.96 49.90 49.57 49.19 48.76 48.51 48.24 48.14 48.13 47.91 47.69 47.34 47.04 46.87 46.48 46.04 45.68 45.29 45.16 44.90 44.33 43.62 43.54 43.86 44.60 45.42 45.29 45.03 44.69 44.26 43.67 42.83 41.57 39.56 38.35 37.94 37.86 37.52 37.03 36.68 36.40 36.16 36.01 35.88 35.83 36.25 36.79 37.30 37.75 38.50 40.76
51.46 51.27 50.96 50.70 50.44 50.22 50.04 49.91 49.91 49.91 49.95 49.90 49.71 49.61 49.70 49.70 49.64 49.71 49.66 49.65 49.44 49.10 48.80 48.54 48.45 48.48 48.47 48.21 47.86 47.47 47.21 47.00 46.65 46.34 46.04 45.60 45.42 45.20 44.63 43.71 43.45 43.77 44.34 45.21 45.21 45.08 44.78 44.48 44.10 43.42 42.32 40.36 39.15 38.69 38.45 37.87 37.10 36.33 35.66 35.08 35.05 35.27 35.46 35.62 36.55 37.20 37.74 38.20 39.98
50.95 50.77 50.55 50.29 50.20 49.94 49.72 49.54 49.58 49.66 49.70 49.64 49.47 49.47 49.56 49.55 49.50 49.41 49.36 49.27 49.15 48.97 48.88 48.71 48.62 48.57 48.52 48.13 47.70 47.22 46.74 46.48 46.34 46.21 45.99 45.68 45.42 45.07 44.63 43.80 43.36 43.42 43.86 44.73 45.08 45.12 44.95 44.69 44.31 43.76 42.71 40.91 39.67 39.21 38.80 38.07 36.76 35.68 34.77 34.43 34.67 35.07 35.39 35.75 36.42 36.84 37.05 37.07 37.58
MSLP
1000.85 1001.01 1001.17 1001.33 1001.49 1001.61 1001.73 1001.77 1001.81 1001.85 1002.01 1002.17 1002.37 1002.37 1002.29 1002.29 1002.53 1002.97 1003.49 1003.85 1004.17 1004.53 1004.81 1005.09 1005.29 1005.61 1006.01 1006.37 1006.77 1007.29 1007.73 1008.13 1008.45 1008.65 1008.77 1008.97 1009.29 1009.45 1009.61 1009.85 1010.13 1010.45 1010.81 1011.13 1011.53 1011.81 1012.05 1012.29 1012.45 1012.69 1012.93 1013.13 1013.37 1013.61 1013.85 1014.01 1014.25 1014.45 1014.69 1014.89 1015.09 1015.25 1015.41 1015.65 1015.85 1016.01 1016.13 1016.29 1016.45
1000.85 1001.01 1001.17 1001.33 1001.45 1001.57 1001.69 1001.77 1001.89 1002.01 1002.13 1002.29 1002.41 1002.41 1002.33 1002.29 1002.57 1003.09 1003.57 1004.01 1004.29 1004.57 1004.89 1005.17 1005.41 1005.69 1005.97 1006.41 1006.81 1007.29 1007.73 1008.13 1008.45 1008.69 1008.85 1009.13 1009.37 1009.53 1009.65 1009.85 1010.17 1010.53 1010.85 1011.21 1011.57 1011.85 1012.09 1012.29 1012.45 1012.69 1012.93 1013.13 1013.37 1013.61 1013.85 1014.01 1014.21 1014.41 1014.69 1014.89 1015.09 1015.25 1015.41 1015.65 1015.81 1015.97 1016.13 1016.29 1016.49
1000.85 1001.05 1001.21 1001.37 1001.53 1001.61 1001.69 1001.85 1002.01 1002.17 1002.29 1002.37 1002.41 1002.41 1002.29 1002.29 1002.69 1003.21 1003.69 1004.13 1004.41 1004.69 1004.97 1005.29 1005.57 1005.81 1006.01 1006.41 1006.89 1007.37 1007.77 1008.13 1008.45 1008.69 1008.97 1009.29 1009.49 1009.61 1009.73 1009.97 1010.29 1010.65 1010.97 1011.29 1011.57 1011.81 1012.05 1012.29 1012.41 1012.65 1012.85 1013.13 1013.37 1013.61 1013.85 1014.01 1014.17 1014.41 1014.69 1014.89 1015.05 1015.25 1015.41 1015.61 1015.77 1015.93 1016.13 1016.37 1016.57
1000.89 1001.09 1001.25 1001.41 1001.45 1001.57 1001.69 1001.89 1002.09 1002.29 1002.41 1002.41 1002.41 1002.29 1002.29 1002.41 1002.89 1003.41 1003.85 1004.29 1004.61 1004.89 1005.13 1005.41 1005.69 1005.89 1006.13 1006.45 1006.97 1007.49 1007.89 1008.21 1008.49 1008.73 1009.01 1009.37 1009.65 1009.77 1009.85 1010.09 1010.41 1010.77 1011.05 1011.33 1011.57 1011.81 1012.01 1012.21 1012.41 1012.65 1012.85 1013.13 1013.37 1013.61 1013.85 1014.01 1014.21 1014.41 1014.69 1014.89 1015.05 1015.25 1015.41 1015.65 1015.81 1016.01 1016.25 1016.49 1016.69
1000.97 1001.13 1001.29 1001.41 1001.41 1001.53 1001.69 1001.97 1002.13 1002.29 1002.33 1002.33 1002.25 1002.21 1002.37 1002.69 1003.13 1003.65 1004.09 1004.49 1004.81 1005.09 1005.29 1005.49 1005.69 1005.93 1006.25 1006.61 1007.09 1007.57 1008.01 1008.29 1008.57 1008.81 1009.13 1009.53 1009.77 1009.89 1010.01 1010.25 1010.53 1010.85 1011.13 1011.37 1011.57 1011.81 1012.01 1012.21 1012.41 1012.65 1012.89 1013.17 1013.41 1013.61 1013.85 1014.01 1014.21 1014.45 1014.69 1014.89 1015.09 1015.25 1015.45 1015.73 1015.93 1016.13 1016.37 1016.65 1016.85
1001.09 1001.25 1001.37 1001.41 1001.49 1001.61 1001.85 1002.01 1002.13 1002.25 1002.29 1002.17 1002.05 1002.21 1002.57 1002.97 1003.41 1003.81 1004.21 1004.61 1004.97 1005.25 1005.45 1005.65 1005.85 1006.05 1006.33 1006.73 1007.21 1007.69 1008.09 1008.41 1008.65 1008.89 1009.21 1009.57 1009.81 1009.97 1010.13 1010.37 1010.61 1010.85 1011.13 1011.41 1011.61 1011.77 1011.97 1012.17 1012.45 1012.69 1012.97 1013.21 1013.45 1013.65 1013.85 1014.01 1014.29 1014.53 1014.81 1015.05 1015.25 1015.41 1015.57 1015.85 1016.05 1016.25 1016.45 1016.73 1016.97
1001.21 1001.29 1001.41 1001.53 1001.65 1001.81 1001.93 1002.05 1002.13 1002.21 1002.17 1002.05 1002.01 1002.33 1002.77 1003.17 1003.57 1003.93 1004.33 1004.69 1005.09 1005.41 1005.61 1005.85 1005.97 1006.13 1006.45 1006.89 1007.37 1007.81 1008.17 1008.49 1008.77 1008.97 1009.25 1009.53 1009.77 1009.97 1010.13 1010.41 1010.69 1010.97 1011.21 1011.41 1011.65 1011.81 1012.01 1012.17 1012.45 1012.77 1013.01 1013.29 1013.53 1013.77 1013.97 1014.13 1014.37 1014.65 1014.93 1015.21 1015.41 1015.57 1015.69 1015.93 1016.13 1016.33 1016.57 1016.81 1017.01
1001.33 1001.41 1001.53 1001.65 1001.85 1002.01 1002.01 1002.05 1002.13 1002.21 1002.17 1002.13 1002.29 1002.57 1002.93 1003.33 1003.69 1004.09 1004.45 1004.85 1005.25 1005.53 1005.73 1005.97 1006.13 1006.25 1006.53 1006.97 1007.45 1007.89 1008.25 1008.57 1008.85 1009.13 1009.29 1009.57 1009.77 1009.97 1010.17 1010.49 1010.73 1011.01 1011.25 1011.41 1011.61 1011.85 1012.01 1012.29 1012.57 1012.85 1013.13 1013.37 1013.65 1013.89 1014.09 1014.29 1014.49 1014.73 1015.01 1015.33 1015.57 1015.69 1015.85 1016.01 1016.17 1016.37 1016.61 1016.85 1017.09
1001.49 1001.57 1001.73 1001.93 1002.09 1002.09 1002.01 1002.05 1002.13 1002.13 1002.13 1002.21 1002.45 1002.77 1003.13 1003.49 1003.85 1004.21 1004.57 1004.97 1005.33 1005.61 1005.85 1006.05 1006.21 1006.41 1006.69 1007.13 1007.57 1008.01 1008.33 1008.61 1008.89 1009.17 1009.41 1009.65 1009.81 1010.01 1010.29 1010.53 1010.81 1011.09 1011.29 1011.45 1011.69 1011.89 1012.13 1012.41 1012.69 1012.97 1013.25 1013.49 1013.73 1014.01 1014.17 1014.33 1014.57 1014.89 1015.17 1015.41 1015.65 1015.81 1015.97 1016.09 1016.25 1016.45 1016.65 1016.85 1017.13
1001.69 1001.81 1002.01 1002.21 1002.21 1002.09 1002.01 1002.09 1002.13 1002.13 1002.17 1002.37 1002.69 1003.01 1003.37 1003.69 1004.01 1004.33 1004.69 1005.05 1005.41 1005.73 1006.01 1006.21 1006.37 1006.61 1006.97 1007.41 1007.77 1008.13 1008.41 1008.69 1008.97 1009.25 1009.49 1009.69 1009.89 1010.05 1010.29 1010.57 1010.81 1011.05 1011.29 1011.53 1011.81 1012.05 1012.33 1012.57 1012.89 1013.13 1013.41 1013.57 1013.85 1014.09 1014.29 1014.45 1014.69 1014.97 1015.29 1015.49 1015.69 1015.89 1016.09 1016.25 1016.41 1016.57 1016.73 1016.93 1017.17
1001.85 1001.97 1002.17 1002.29 1002.25 1002.09 1002.01 1002.09 1002.13 1002.21 1002.33 1002.57 1002.89 1003.25 1003.57 1003.89 1004.25 1004.57 1004.85 1005.17 1005.57 1005.89 1006.17 1006.41 1006.57 1006.81 1007.17 1007.69 1007.97 1008.25 1008.57 1008.85 1009.13 1009.37 1009.61 1009.89 1010.01 1010.13 1010.33 1010.57 1010.81 1011.09 1011.41 1011.69 1011.97 1012.21 1012.45 1012.73 1013.01 1013.29 1013.49 1013.69 1013.97 1014.21 1014.41 1014.61 1014.85 1015.09 1015.37 1015.57 1015.73 1015.93 1016.17 1016.41 1016.53 1016.69 1016.85 1017.09 1017.29
1002.01 1002.13 1002.29 1002.33 1002.29 1002.13 1002.05 1002.09 1002.21 1002.33 1002.53 1002.77 1003.09 1003.41 1003.77 1004.13 1004.41 1004.73 1005.01 1005.29 1005.65 1006.05 1006.37 1006.61 1006.77 1007.01 1007.41 1007.81 1008.13 1008.45 1008.73 1008.97 1009.29 1009.57 1009.85 1010.09 1010.13 1010.21 1010.41 1010.65 1010.89 1011.21 1011.57 1011.85 1012.13 1012.33 1012.61 1012.85 1013.09 1013.37 1013.61 1013.85 1014.09 1014.33 1014.57 1014.69 1014.97 1015.17 1015.41 1015.69 1015.85 1016.01 1016.25 1016.45 1016.65 1016.81 1016.97 1017.21 1017.37
1002.09 1002.29 1002.41 1002.41 1002.29 1002.17 1002.13 1002.13 1002.29 1002.53 1002.73 1002.97 1003.29 1003.61 1004.01 1004.37 1004.65 1004.89 1005.13 1005.41 1005.77 1006.17 1006.57 1006.89 1007.01 1007.29 1007.61 1008.01 1008.37 1008.69 1008.93 1009.17 1009.41 1009.69 1010.01 1010.17 1010.13 1010.25 1010.49 1010.77 1011.09 1011.41 1011.77 1012.05 1012.29 1012.49 1012.69 1012.93 1013.13 1013.41 1013.65 1013.97 1014.21 1014.41 1014.61 1014.77 1014.97 1015.25 1015.53 1015.73 1015.93 1016.13 1016.33 1016.53 1016.69 1016.89 1017.09 1017.29 1017.49
1002.17 1002.33 1002.45 1002.45 1002.29 1002.17 1002.17 1002.25 1002.49 1002.69 1002.93 1003.21 1003.53 1003.85 1004.21 1004.57 1004.85 1005.09 1005.29 1005.57 1005.89 1006.29 1006.69 1007.05 1007.29 1007.53 1007.85 1008.17 1008.49 1008.77 1008.97 1009.21 1009.49 1009.81 1010.01 1010.09 1010.13 1010.29 1010.57 1010.93 1011.29 1011.69 1012.01 1012.21 1012.41 1012.57 1012.77 1012.97 1013.25 1013.45 1013.69 1014.01 1014.29 1014.53 1014.69 1014.85 1015.05 1015.29 1015.53 1015.77 1016.01 1016.21 1016.41 1016.57 1016.77 1016.97 1017.17 1017.41 1017.61
1002.25 1002.41 1002.49 1002.49 1002.33 1002.25 1002.25 1002.37 1002.61 1002.89 1003.13 1003.41 1003.77 1004.09 1004.41 1004.77 1005.05 1005.29 1005.45 1005.73 1006.05 1006.41 1006.81 1007.13 1007.49 1007.77 1008.05 1008.33 1008.57 1008.81 1009.01 1009.25 1009.57 1009.77 1009.89 1010.01 1010.13 1010.41 1010.77 1011.17 1011.53 1011.85 1012.13 1012.33 1012.53 1012.69 1012.85 1013.09 1013.29 1013.53 1013.77 1014.05 1014.33 1014.57 1014.77 1014.97 1015.17 1015.37 1015.57 1015.77 1016.01 1016.25 1016.45 1016.65 1016.85 1017.05 1017.25 1017.45 1017.69
1002.37 1002.49 1002.57 1002.53 1002.41 1002.29 1002.33 1002.53 1002.81 1003.13 1003.41 1003.69 1004.01 1004.29 1004.65 1004.97 1005.25 1005.41 1005.65 1005.93 1006.21 1006.57 1006.93 1007.29 1007.61 1007.93 1008.25 1008.49 1008.65 1008.85 1009.09 1009.33 1009.57 1009.69 1009.81 1009.97 1010.29 1010.61 1010.97 1011.37 1011.69 1011.97 1012.17 1012.41 1012.57 1012.81 1012.97 1013.17 1013.41 1013.61 1013.85 1014.09 1014.37 1014.61 1014.85 1015.09 1015.29 1015.45 1015.69 1015.85 1016.09 1016.29 1016.53 1016.69 1016.93 1017.13 1017.37 1017.57 1017.77
1002.45 1002.65 1002.69 1002.57 1002.41 1002.37 1002.45 1002.69 1003.01 1003.29 1003.61 1003.93 1004.21 1004.53 1004.81 1005.09 1005.37 1005.57 1005.81 1006.01 1006.33 1006.69 1007.09 1007.41 1007.69 1008.01 1008.33 1008.57 1008.77 1008.97 1009.17 1009.41 1009.61 1009.77 1009.93 1010.13 1010.49 1010.85 1011.17 1011.49 1011.77 1012.01 1012.21 1012.41 1012.65 1012.89 1013.13 1013.29 1013.49 1013.69 1013.97 1014.17 1014.41 1014.69 1014.93 1015.17 1015.37 1015.57 1015.81 1016.01 1016.21 1016.41 1016.61 1016.81 1017.01 1017.25 1017.45 1017.69 1017.85
1002.57 1002.73 1002.69 1002.57 1002.45 1002.45 1002.61 1002.89 1003.21 1003.53 1003.85 1004.13 1004.41 1004.69 1004.93 1005.17 1005.41 1005.69 1005.97 1006.21 1006.45 1006.81 1007.17 1007.57 1007.85 1008.09 1008.33 1008.61 1008.85 1009.05 1009.25 1009.49 1009.73 1009.93 1010.13 1010.41 1010.69 1010.97 1011.29 1011.57 1011.85 1012.05 1012.29 1012.49 1012.73 1012.97 1013.17 1013.41 1013.65 1013.85 1014.05 1014.29 1014.53 1014.77 1015.01 1015.29 1015.49 1015.69 1015.97 1016.17 1016.37 1016.57 1016.77 1016.97 1017.17 1017.37 1017.57 1017.77 1018.01
1002.69 1002.77 1002.69 1002.57 1002.49 1002.57 1002.81 1003.13 1003.41 1003.69 1004.01 1004.29 1004.57 1004.85 1005.09 1005.29 1005.57 1005.85 1006.13 1006.41 1006.65 1006.93 1007.25 1007.61 1007.97 1008.17 1008.37 1008.57 1008.85 1009.09 1009.33 1009.61 1009.89 1010.13 1010.33 1010.57 1010.85 1011.09 1011.37 1011.61 1011.85 1012.13 1012.37 1012.61 1012.85 1013.05 1013.25 1013.49 1013.73 1013.97 1014.17 1014.41 1014.69 1014.93 1015.17 1015.41 1015.69 1015.93 1016.13 1016.37 1016.57 1016.77 1016.97 1017.17 1017.37 1017.53 1017.69 1017.85 1018.05
1002.65 1002.77 1002.73 1002.57 1002.57 1002.73 1003.01 1003.29 1003.57 1003.89 1004.21 1004.45 1004.73 1004.97 1005.25 1005.49 1005.69 1006.01 1006.29 1006.61 1006.85 1007.09 1007.33 1007.65 1007.97 1008.21 1008.41 1008.57 1008.85 1009.13 1009.49 1009.81 1010.01 1010.25 1010.41 1010.65 1010.89 1011.13 1011.41 1011.69 1011.93 1012.21 1012.49 1012.73 1012.93 1013.13 1013.33 1013.57 1013.85 1014.09 1014.33 1014.57 1014.85 1015.13 1015.41 1015.65 1015.89 1016.13 1016.37 1016.57 1016.77 1016.97 1017.17 1017.37 1017.53 1017.69 1017.85 1017.97 1018.13
1002.61 1002.69 1002.69 1002.65 1002.69 1002.93 1003.25 1003.53 1003.77 1004.09 1004.41 1004.69 1004.93 1005.17 1005.41 1005.69 1005.89 1006.13 1006.45 1006.73 1006.97 1007.21 1007.45 1007.69 1007.93 1008.17 1008.41 1008.61 1008.93 1009.29 1009.69 1009.93 1010.09 1010.29 1010.49 1010.69 1010.93 1011.17 1011.45 1011.77 1012.09 1012.37 1012.61 1012.85 1013.01 1013.21 1013.41 1013.69 1014.01 1014.25 1014.53 1014.77 1015.01 1015.29 1015.57 1015.85 1016.09 1016.33 1016.57 1016.77 1016.97 1017.17 1017.37 1017.53 1017.69 1017.81 1017.97 1018.13 1018.29
1002.61 1002.69 1002.69 1002.73 1002.89 1003.13 1003.41 1003.69 1004.01 1004.29 1004.57 1004.85 1005.13 1005.33 1005.61 1005.85 1006.09 1006.33 1006.61 1006.85 1007.13 1007.33 1007.57 1007.77 1008.01 1008.25 1008.49 1008.81 1009.13 1009.41 1009.73 1009.97 1010.13 1010.29 1010.49 1010.69 1010.97 1011.25 1011.57 1011.85 1012.21 1012.53 1012.73 1012.93 1013.13 1013.33 1013.61 1013.89 1014.17 1014.41 1014.69 1014.93 1015.17 1015.41 1015.69 1015.93 1016.21 1016.45 1016.69 1016.97 1017.13 1017.37 1017.57 1017.69 1017.85 1018.01 1018.13 1018.29 1018.45
1002.65 1002.69 1002.81 1002.97 1003.17 1003.41 1003.69 1003.97 1004.21 1004.49 1004.77 1005.01 1005.29 1005.53 1005.77 1006.05 1006.29 1006.53 1006.77 1007.05 1007.25 1007.41 1007.61 1007.85 1008.13 1008.41 1008.69 1008.97 1009.29 1009.57 1009.81 1010.01 1010.17 1010.33 1010.53 1010.77 1011.09 1011.41 1011.73 1012.05 1012.37 1012.69 1012.93 1013.09 1013.29 1013.53 1013.81 1014.09 1014.41 1014.61 1014.85 1015.05 1015.33 1015.57 1015.81 1016.05 1016.29 1016.57 1016.85 1017.09 1017.29 1017.53 1017.69 1017.85 1018.05 1018.17 1018.33 1018.45 1018.61
1002.69 1002.81 1002.97 1003.21 1003.41 1003.69 1003.93 1004.13 1004.41 1004.69 1004.93 1005.21 1005.41 1005.69 1005.93 1006.13 1006.41 1006.65 1006.89 1007.13 1007.29 1007.45 1007.69 1008.01 1008.33 1008.69 1008.97 1009.21 1009.45 1009.65 1009.85 1010.01 1010.21 1010.41 1010.65 1010.93 1011.25 1011.61 1012.01 1012.29 1012.61 1012.85 1013.09 1013.29 1013.45 1013.69 1013.93 1014.21 1014.57 1014.77 1014.97 1015.21 1015.49 1015.73 1016.01 1016.25 1016.49 1016.69 1016.93 1017.13 1017.41 1017.61 1017.85 1018.05 1018.21 1018.37 1018.49 1018.65 1018.77
1002.81 1002.97 1003.17 1003.41 1003.65 1003.89 1004.13 1004.37 1004.61 1004.85 1005.13 1005.41 1005.61 1005.85 1006.05 1006.29 1006.53 1006.77 1007.01 1007.21 1007.37 1007.57 1007.89 1008.29 1008.61 1008.89 1009.13 1009.41 1009.65 1009.85 1010.01 1010.13 1010.29 1010.53 1010.85 1011.17 1011.53 1011.89 1012.25 1012.57 1012.85 1013.09 1013.29 1013.45 1013.61 1013.77 1014.01 1014.25 1014.49 1014.77 1015.05 1015.33 1015.65 1015.93 1016.21 1016.45 1016.61 1016.81 1016.97 1017.17 1017.41 1017.69 1017.93 1018.13 1018.37 1018.53 1018.65 1018.77 1018.89
1002.97 1003.17 1003.41 1003.61 1003.85 1004.09 1004.33 1004.57 1004.81 1005.05 1005.29 1005.57 1005.77 1006.01 1006.25 1006.49 1006.69 1006.89 1007.13 1007.33 1007.57 1007.85 1008.21 1008.57 1008.85 1009.09 1009.37 1009.61 1009.85 1010.09 1010.21 1010.33 1010.49 1010.73 1011.05 1011.41 1011.81 1012.13 1012.49 1012.85 1013.09 1013.29 1013.45 1013.57 1013.73 1013.89 1014.05 1014.29 1014.49 1014.73 1015.05 1015.41 1015.73 1016.05 1016.37 1016.61 1016.81 1016.97 1017.13 1017.29 1017.45 1017.65 1017.89 1018.21 1018.49 1018.69 1018.81 1018.89 1018.97
1003.25 1003.41 1003.65 1003.85 1004.09 1004.29 1004.53 1004.77 1005.01 1005.29 1005.53 1005.73 1005.97 1006.21 1006.49 1006.69 1006.93 1007.13 1007.33 1007.61 1007.89 1008.21 1008.53 1008.81 1009.05 1009.29 1009.57 1009.81 1010.09 1010.29 1010.45 1010.61 1010.85 1011.09 1011.37 1011.69 1012.09 1012.45 1012.77 1013.05 1013.25 1013.41 1013.61 1013.69 1013.85 1014.01 1014.17 1014.41 1014.61 1014.85 1015.13 1015.45 1015.77 1016.09 1016.41 1016.69 1016.97 1017.13 1017.29 1017.41 1017.57 1017.69 1017.93 1018.25 1018.53 1018.73 1018.89 1019.01 1019.13
1003.49 1003.69 1003.89 1004.13 1004.37 1004.57 1004.85 1005.05 1005.29 1005.53 1005.77 1005.97 1006.21 1006.41 1006.69 1006.93 1007.17 1007.41 1007.69 1007.97 1008.25 1008.53 1008.81 1009.05 1009.29 1009.49 1009.73 1010.01 1010.29 1010.45 1010.69 1010.89 1011.17 1011.45 1011.73 1012.05 1012.37 1012.69 1012.97 1013.17 1013.41 1013.57 1013.73 1013.85 1014.01 1014.13 1014.37 1014.57 1014.85 1015.09 1015.29 1015.57 1015.85 1016.17 1016.45 1016.73 1016.97 1017.17 1017.33 1017.53 1017.69 1017.85 1018.01 1018.29 1018.49 1018.69 1018.89 1019.09 1019.29
1003.81 1004.01 1004.21 1004.49 1004.69 1004.93 1005.13 1005.37 1005.57 1005.81 1006.01 1006.25 1006.41 1006.69 1006.97 1007.25 1007.49 1007.73 1008.01 1008.25 1008.45 1008.73 1009.01 1009.29 1009.45 1009.65 1009.93 1010.25 1010.45 1010.65 1010.85 1011.17 1011.45 1011.77 1012.05 1012.37 1012.65 1012.93 1013.13 1013.41 1013.61 1013.77 1013.89 1014.01 1014.17 1014.37 1014.57 1014.85 1015.05 1015.29 1015.49 1015.69 1016.01 1016.29 1016.57 1016.77 1016.97 1017.17 1017.41 1017.57 1017.73 1017.89 1018.09 1018.33 1018.57 1018.73 1018.93 1019.13 1019.29
1004.13 1004.33 1004.57 1004.81 1005.05 1005.29 1005.45 1005.65 1005.85 1006.09 1006.29 1006.49 1006.69 1006.93 1007.21 1007.53 1007.77 1008.01 1008.25 1008.41 1008.69 1008.89 1009.13 1009.37 1009.57 1009.81 1010.05 1010.29 1010.57 1010.85 1011.13 1011.45 1011.73 1012.01 1012.29 1012.61 1012.89 1013.13 1013.37 1013.57 1013.77 1013.97 1014.13 1014.25 1014.41 1014.61 1014.85 1015.09 1015.29 1015.49 1015.69 1015.89 1016.13 1016.37 1016.61 1016.81 1016.97 1017.13 1017.37 1017.61 1017.85 1018.01 1018.17 1018.41 1018.61 1018.77 1018.97 1019.13 1019.33
1004.49 1004.69 1004.89 1005.09 1005.33 1005.57 1005.77 1005.97 1006.17 1006.41 1006.57 1006.77 1007.01 1007.25 1007.53 1007.81 1008.05 1008.29 1008.45 1008.65 1008.89 1009.13 1009.33 1009.49 1009.69 1009.97 1010.17 1010.41 1010.69 1011.01 1011.41 1011.69 1012.01 1012.29 1012.57 1012.81 1013.05 1013.29 1013.57 1013.73 1014.01 1014.21 1014.41 1014.53 1014.69 1014.89 1015.09 1015.29 1015.49 1015.69 1015.85 1016.01 1016.25 1016.41 1016.65 1016.85 1016.97 1017.17 1017.41 1017.69 1017.93 1018.13 1018.29 1018.49 1018.65 1018.85 1018.97 1019.13 1019.29
1004.81 1004.97 1005.17 1005.41 1005.65 1005.89 1006.13 1006.29 1006.53 1006.69 1006.89 1007.13 1007.33 1007.57 1007.85 1008.13 1008.33 1008.57 1008.69 1008.89 1009.13 1009.37 1009.57 1009.73 1009.93 1010.13 1010.41 1010.69 1010.97 1011.29 1011.57 1011.93 1012.25 1012.57 1012.81 1012.97 1013.25 1013.53 1013.77 1014.01 1014.25 1014.49 1014.65 1014.81 1014.97 1015.13 1015.29 1015.45 1015.65 1015.85 1016.01 1016.13 1016.33 1016.49 1016.69 1016.85 1017.09 1017.29 1017.57 1017.81 1018.01 1018.21 1018.37 1018.53 1018.69 1018.85 1018.97 1019.13 1019.29
1005.13 1005.33 1005.53 1005.73 1006.01 1006.25 1006.41 1006.65 1006.85 1007.01 1007.25 1007.41 1007.69 1007.85 1008.09 1008.37 1008.57 1008.77 1008.97 1009.17 1009.37 1009.57 1009.73 1009.97 1010.17 1010.41 1010.65 1010.89 1011.17 1011.49 1011.85 1012.21 1012.53 1012.81 1013.01 1013.21 1013.41 1013.69 1014.01 1014.29 1014.57 1014.77 1014.93 1015.05 1015.17 1015.33 1015.49 1015.69 1015.81 1015.97 1016.13 1016.29 1016.41 1016.57 1016.73 1016.89 1017.17 1017.49 1017.73 1018.01 1018.21 1018.33 1018.45 1018.57 1018.69 1018.85 1019.01 1019.17 1019.29
1005.49 1005.69 1005.85 1006.13 1006.33 1006.57 1006.73 1006.97 1007.17 1007.37 1007.57 1007.73 1007.93 1008.13 1008.29 1008.53 1008.73 1009.01 1009.25 1009.41 1009.57 1009.77 1010.01 1010.21 1010.41 1010.65 1010.85 1011.09 1011.37 1011.69 1012.13 1012.49 1012.81 1013.05 1013.29 1013.49 1013.69 1013.93 1014.25 1014.57 1014.85 1015.05 1015.17 1015.29 1015.41 1015.53 1015.65 1015.81 1015.97 1016.09 1016.21 1016.33 1016.57 1016.69 1016.89 1017.09 1017.37 1017.65 1017.89 1018.13 1018.29 1018.45 1018.57 1018.65 1018.77 1018.89 1019.01 1019.17 1019.33
1005.81 1006.01 1006.21 1006.41 1006.65 1006.85 1007.05 1007.29 1007.49 1007.65 1007.81 1008.01 1008.21 1008.41 1008.57 1008.77 1008.97 1009.25 1009.45 1009.65 1009.81 1010.01 1010.29 1010.49 1010.69 1010.89 1011.13 1011.41 1011.69 1012.01 1012.37 1012.69 1013.05 1013.33 1013.57 1013.73 1013.93 1014.17 1014.49 1014.85 1015.13 1015.29 1015.41 1015.49 1015.61 1015.69 1015.81 1015.93 1016.01 1016.13 1016.29 1016.49 1016.73 1016.93 1017.09 1017.29 1017.57 1017.81 1018.01 1018.21 1018.41 1018.53 1018.61 1018.69 1018.81 1018.89 1019.01 1019.17 1019.33
1006.13 1006.29 1006.49 1006.73 1006.93 1007.13 1007.33 1007.53 1007.69 1007.85 1008.05 1008.25 1008.49 1008.69 1008.93 1009.13 1009.29 1009.53 1009.69 1009.85 1010.05 1010.29 1010.57 1010.81 1010.97 1011.17 1011.41 1011.73 1012.09 1012.37 1012.65 1012.97 1013.29 1013.57 1013.81 1014.01 1014.21 1014.45 1014.73 1015.09 1015.33 1015.57 1015.69 1015.69 1015.81 1015.89 1015.97 1016.05 1016.13 1016.29 1016.41 1016.65 1016.85 1017.13 1017.33 1017.53 1017.77 1018.01 1018.13 1018.33 1018.49 1018.57 1018.69 1018.77 1018.85 1018.97 1019.09 1019.25 1019.41
1006.45 1006.57 1006.77 1006.97 1007.21 1007.41 1007.57 1007.73 1007.93 1008.13 1008.37 1008.57 1008.81 1008.97 1009.17 1009.37 1009.61 1009.85 1010.01 1010.09 1010.29 1010.53 1010.77 1010.97 1011.25 1011.49 1011.73 1012.05 1012.41 1012.73 1012.97 1013.17 1013.45 1013.77 1014.05 1014.29 1014.49 1014.69 1014.97 1015.29 1015.57 1015.77 1015.89 1015.93 1015.97 1016.01 1016.09 1016.17 1016.29 1016.41 1016.57 1016.73 1017.01 1017.29 1017.49 1017.69 1017.93 1018.13 1018.29 1018.41 1018.57 1018.69 1018.77 1018.85 1018.97 1019.05 1019.17 1019.33 1019.49
1006.85 1006.93 1007.05 1007.25 1007.41 1007.65 1007.85 1008.05 1008.29 1008.49 1008.69 1008.97 1009.13 1009.29 1009.41 1009.57 1009.85 1010.13 1010.29 1010.33 1010.49 1010.73 1010.97 1011.25 1011.53 1011.85 1012.09 1012.33 1012.65 1012.97 1013.29 1013.53 1013.73 1014.01 1014.33 1014.61 1014.77 1014.93 1015.13 1015.45 1015.73 1015.97 1016.05 1016.09 1016.13 1016.13 1016.21 1016.29 1016.41 1016.53 1016.69 1016.93 1017.13 1017.37 1017.57 1017.85 1018.05 1018.25 1018.41 1018.53 1018.69 1018.85 1018.93 1018.97 1019.05 1019.13 1019.29 1019.41 1019.53
1007.21 1007.29 1007.41 1007.57 1007.77 1008.01 1008.21 1008.41 1008.65 1008.85 1009.05 1009.25 1009.45 1009.61 1009.73 1009.89 1010.13 1010.41 1010.57 1010.61 1010.73 1010.93 1011.17 1011.49 1011.81 1012.13 1012.37 1012.61 1012.85 1013.21 1013.57 1013.85 1014.09 1014.33 1014.57 1014.85 1015.05 1015.17 1015.33 1015.57 1015.85 1016.05 1016.17 1016.21 1016.25 1016.29 1016.33 1016.41 1016.57 1016.69 1016.85 1017.05 1017.29 1017.45 1017.69 1017.89 1018.13 1018.33 1018.53 1018.69 1018.85 1018.97 1019.13 1019.17 1019.21 1019.29 1019.41 1019.49 1019.57
1007.57 1007.69 1007.85 1008.01 1008.13 1008.33 1008.57 1008.77 1008.97 1009.21 1009.37 1009.53 1009.69 1009.85 1010.09 1010.29 1010.45 1010.65 1010.77 1010.93 1011.05 1011.25 1011.45 1011.73 1012.05 1012.29 1012.57 1012.81 1013.09 1013.41 1013.77 1014.13 1014.41 1014.61 1014.85 1015.09 1015.29 1015.41 1015.57 1015.69 1015.89 1016.09 1016.21 1016.29 1016.29 1016.37 1016.45 1016.57 1016.69 1016.85 1016.97 1017.21 1017.41 1017.57 1017.73 1017.97 1018.17 1018.41 1018.61 1018.81 1018.93 1019.09 1019.25 1019.33 1019.37 1019.45 1019.57 1019.65 1019.69
1007.97 1008.05 1008.17 1008.33 1008.49 1008.61 1008.77 1009.01 1009.29 1009.53 1009.69 1009.85 1010.09 1010.29 1010.41 1010.57 1010.69 1010.85 1010.97 1011.21 1011.41 1011.57 1011.81 1012.05 1012.29 1012.57 1012.81 1013.05 1013.33 1013.65 1014.01 1014.37 1014.65 1014.85 1015.09 1015.29 1015.49 1015.61 1015.69 1015.85 1016.01 1016.13 1016.29 1016.33 1016.41 1016.49 1016.57 1016.69 1016.81 1016.97 1017.13 1017.29 1017.49 1017.61 1017.81 1018.01 1018.25 1018.49 1018.69 1018.89 1019.01 1019.13 1019.29 1019.41 1019.53 1019.61 1019.69 1019.81 1019.89
Wind_Speed
7 6 6 7 6 6 5 4 4 4 5 8 10 9 8 10 11 11 10 10 9 10 10 11 11 13 15 18 18 17 16 15 14 14 15 15 14 13 14 14 14 13 13 13 12 11 10 10 8 7 6 6 6 6 6 5 6 6 6 6 6 6 6 7 6 6 6 5 4
7 7 7 7 7 6 5 4 5 5 6 8 9 8 8 10 11 11 10 10 10 10 10 10 12 14 16 18 17 17 16 16 16 16 16 16 15 14 14 14 14 14 14 14 12 10 9 9 8 7 6 5 6 6 6 6 7 7 7 7 6 5 5 6 6 6 7 6 5
8 8 7 7 7 6 6 6 6 8 9 9 9 8 8 9 10 10 10 10 10 10 10 10 12 15 17 18 16 15 15 15 17 17 16 16 15 15 14 14 15 15 14 13 12 10 9 9 8 7 6 6 6 6 6 6 6 7 7 7 6 5 5 5 5 5 6 5 6
8 8 7 7 8 8 7 7 8 10 11 8 9 8 9 9 9 10 10 11 11 11 11 11 13 14 16 17 16 15 15 15 17 18 18 17 16 15 15 15 15 14 14 13 12 11 11 10 8 7 6 7 7 7 6 6 6 6 6 6 5 5 4 4 4 5 5 5 5
7 7 7 7 7 7 7 7 9 10 10 7 8 9 9 10 10 10 10 11 10 11 12 13 13 14 15 17 17 17 16 15 16 17 17 18 17 16 15 15 15 14 13 12 12 12 11 10 7 6 6 7 6 6 6 7 7 6 5 4 4 4 4 5 5 5 5 5 4
6 6 6 6 7 7 7 7 10 10 9 8 11 12 11 10 10 11 11 11 11 13 14 15 14 15 16 18 18 17 16 15 14 15 17 19 17 16 15 15 15 13 12 12 12 12 11 10 7 6 6 6 5 6 7 8 8 7 6 5 4 4 5 5 5 5 6 6 6
5 6 6 7 8 8 8 9 10 10 9 10 14 15 14 13 13 14 14 13 13 13 13 13 14 15 17 18 17 16 15 14 14 15 17 17 16 16 15 15 14 13 12 12 12 11 10 9 7 6 6 6 5 7 8 9 8 8 7 6 5 5 5 6 5 5 7 8 8
4 5 7 9 10 9 9 10 10 10 10 11 14 16 17 17 17 17 16 14 13 12 12 12 15 17 18 18 17 16 15 15 14 14 15 16 16 16 15 15 14 13 12 11 11 10 9 7 6 6 6 6 6 7 9 10 10 9 9 7 5 5 5 5 5 6 7 9 8
4 6 9 11 9 9 9 11 10 11 12 14 16 17 18 18 18 18 16 14 13 13 13 13 16 18 19 18 18 16 16 15 15 15 15 15 16 16 15 14 14 13 12 11 10 10 9 7 6 6 6 6 6 7 9 11 11 11 9 7 6 5 5 5 6 6 7 8 8
5 8 10 9 7 7 8 11 11 13 15 17 18 18 18 18 18 17 15 13 14 14 14 14 16 18 18 18 17 16 16 15 15 16 16 16 17 16 15 13 13 12 11 10 10 10 10 8 8 8 7 7 9 10 10 11 11 10 9 6 6 7 7 6 7 7 8 8 8
6 8 8 5 5 5 8 11 12 13 15 17 18 18 18 17 16 15 15 14 15 16 16 15 17 17 17 17 16 16 15 14 14 15 16 17 16 15 14 13 13 12 12 11 10 9 9 9 9 10 10 9 10 10 10 11 11 10 9 7 7 8 8 7 7 7 7 8 9
7 8 6 4 4 5 9 12 13 14 16 17 18 17 17 16 16 16 16 17 18 17 17 16 16 16 15 14 14 14 14 15 15 16 16 16 16 15 14 13 13 12 12 11 10 9 9 10 11 11 11 10 9 9 10 11 11 11 10 8 9 9 8 8 7 7 7 8 9
8 7 5 5 4 6 11 13 13 14 16 17 17 16 15 15 16 17 18 19 18 16 15 15 15 15 15 14 14 13 14 15 16 16 15 16 15 14 13 13 13 12 12 11 10 10 10 11 12 12 12 10 9 9 9 11 11 11 10 10 9 9 8 8 8 8 8 8 8
8 6 5 6 5 7 11 13 13 14 15 17 16 15 15 15 16 16 17 18 17 16 15 14 13 13 14 14 14 14 14 15 16 17 17 15 14 13 13 12 13 12 11 10 10 11 11 11 12 12 12 11 10 10 10 10 10 10 10 10 10 9 9 9 8 8 9 9 8
7 5 5 6 5 8 12 14 13 13 15 16 15 15 14 14 15 15 16 17 17 16 14 13 12 12 13 14 15 15 16 16 17 17 16 15 14 13 13 13 13 12 11 11 11 11 12 12 12 12 12 12 11 10 10 10 10 10 10 10 10 9 9 9 8 8 9 9 8
6 5 5 6 6 10 13 13 12 13 14 14 15 14 14 13 13 14 16 17 15 14 14 14 13 13 13 14 15 16 16 16 17 16 15 14 14 14 14 14 13 13 12 12 11 11 11 11 11 12 12 12 11 11 10 10 9 9 9 9 9 9 9 9 9 8 8 9 8
6 5 6 5 9 13 14 13 12 12 13 14 15 14 13 13 13 14 15 16 14 14 15 15 14 13 13 13 14 15 15 16 15 15 14 14 14 15 14 14 13 13 13 13 12 11 11 10 11 11 11 12 11 11 10 10 10 10 9 9 9 9 9 9 9 9 9 9 8
6 6 6 7 11 15 16 15 14 14 15 15 14 14 13 13 13 14 14 15 16 16 17 16 14 14 14 14 13 13 14 15 14 14 13 14 15 15 15 14 13 13 13 12 12 12 12 11 11 11 11 11 11 11 11 11 10 10 10 10 9 9 9 9 8 8 8 9 8
7 7 7 10 14 16 17 16 16 16 15 15 14 14 14 14 14 14 15 15 16 17 18 17 15 14 14 14 13 12 13 14 14 14 14 15 15 15 15 14 13 13 12 12 12 12 12 12 11 11 11 11 11 11 11 11 11 11 10 10 10 9 9 9 8 8 8 8 8
8 9 9 12 15 17 17 17 16 16 15 14 14 15 15 15 16 16 16 16 16 17 17 17 15 15 14 14 14 13 12 13 14 15 15 15 15 15 14 14 13 13 12 12 12 12 12 12 12 12 12 12 13 13 12 12 12 11 11 10 10 9 9 9 9 8 8 8 8
10 11 12 14 16 17 17 17 16 16 16 15 15 16 16 16 16 16 16 16 16 16 16 16 15 15 15 14 14 14 13 12 14 15 15 15 15 15 14 14 13 12 12 11 12 12 12 12 12 12 12 13 13 13 12 12 12 11 11 10 10 9 9 9 9 9 9 8 8
12 12 13 15 16 17 17 17 16 16 16 16 16 16 17 16 16 16 16 16 16 16 15 15 15 15 14 14 14 14 13 13 14 14 14 14 14 14 13 13 13 12 11 11 11 12 12 13 12 12 12 12 12 12 12 12 12 12 11 11 10 10 10 9 9 9 9 9 8
13 14 14 15 16 17 17 17 17 17 17 16 17 17 17 17 17 16 16 15 15 15 15 14 14 14 14 14 14 14 14 14 14 14 14 14 14 13 13 12 12 11 11 10 11 11 12 12 12 12 12 12 12 12 12 12 12 12 11 11 11 10 10 9 9 9 9 8 8
14 14 14 14 16 17 17 17 17 17 17 17 17 17 17 17 17 16 16 15 15 15 14 13 13 14 14 14 15 15 15 16 15 15 15 14 14 13 12 11 10 10 9 9 10 11 11 11 10 10 10 11 11 11 11 11 11 11 11 12 11 11 10 9 9 9 9 8 8
15 15 15 15 16 17 17 17 17 17 17 17 17 17 17 17 16 16 16 15 16 16 16 15 14 14 14 14 14 15 15 15 16 16 15 15 14 13 11 10 9 8 8 10 13 15 15 13 11 10 10 10 11 10 10 10 10 10 11 11 11 11 10 10 9 9 9 8 8
15 16 16 17 17 17 17 18 18 18 17 17 17 17 17 16 16 16 16 16 16 16 16 16 15 14 14 14 14 14 14 14 15 15 15 14 13 12 11 9 8 7 8 11 16 18 17 16 15 13 11 10 10 10 10 9 9 10 10 10 10 11 11 10 9 9 8 8 8
15 16 17 17 17 18 18 18 18 18 18 18 18 17 17 16 15 16 16 17 17 17 16 15 15 14 14 13 14 14 14 13 14 14 14 14 13 12 11 9 8 7 9 14 17 18 18 18 18 16 13 11 10 10 9 9 9 9 9 9 9 10 11 11 10 10 9 9 8
15 16 17 17 17 17 17 17 17 17 17 17 17 17 17 17 17 17 17 17 16 15 14 13 13 12 11 12 13 14 14 14 13 13 13 13 13 12 11 9 8 9 12 16 18 19 19 19 19 17 15 12 10 10 10 10 9 9 8 8 8 9 10 10 10 9 10 9 9
16 16 17 17 16 16 16 16 17 17 17 17 17 17 17 17 17 17 16 16 16 14 12 11 10 10 11 12 13 14 14 14 13 12 13 13 13 12 11 10 10 11 14 18 19 19 19 19 19 18 16 14 10 8 8 8 8 8 7 7 7 8 9 9 8 9 9 9 9
15 16 16 16 16 15 15 16 16 16 16 16 17 17 17 17 16 16 15 15 14 13 11 11 11 12 13 14 14 13 13 13 12 13 13 14 13 12 12 11 10 12 15 18 19 19 19 19 19 18 17 15 11 9 8 8 8 7 7 7 7 8 8 8 9 8 8 8 8
15 16 16 16 16 16 15 15 16 16 16 16 17 17 17 16 15 14 14 14 13 12 12 13 14 14 14 14 13 13 13 13 13 13 13 14 14 13 12 12 11 12 15 18 19 20 20 19 19 18 17 15 12 9 8 8 8 7 7 7 8 8 8 8 8 8 8 8 8
16 16 16 16 16 16 15 15 15 16 16 17 17 17 16 15 15 14 13 13 14 14 14 15 15 15 15 14 14 14 14 13 13 13 13 14 14 14 13 12 12 13 15 18 19 19 19 19 19 18 17 15 12 9 8 9 8 8 8 8 8 8 8 7 7 8 8 8 8
16 16 17 16 16 16 15 15 16 16 16 16 16 16 16 15 15 14 14 13 14 15 15 15 16 15 15 15 15 15 14 14 14 14 14 14 14 14 13 12 11 12 15 19 19 19 19 19 19 19 17 15 12 10 9 9 8 8 7 7 7 7 8 7 7 7 7 8 7
17 17 17 17 16 16 16 15 15 16 16 16 16 16 16 16 15 15 14 13 13 13 13 14 14 14 14 14 15 15 15 14 14 14 14 14 14 14 13 10 9 11 15 19 19 19 19 19 19 19 18 15 11 9 9 9 9 8 8 7 7 7 7 7 7 7 7 8 7
17 17 17 16 16 16 16 16 15 16 16 16 16 16 16 15 15 15 14 13 13 13 12 13 13 13 14 14 15 15 15 15 14 14 13 13 14 14 13 11 10 12 16 18 19 19 19 19 19 19 17 14 10 9 9 10 9 9 9 8 7 7 6 6 6 6 7 8 8
17 17 17 16 16 16 16 16 16 16 16 16 16 16 15 15 14 14 13 14 14 14 13 13 13 14 14 14 14 14 15 15 14 14 13 13 14 14 13 12 11 13 15 17 18 18 19 19 19 18 16 12 9 8 8 8 8 8 8 8 7 6 6 5 6 6 7 7 8
16 16 16 16 16 16 16 16 16 16 16 16 15 15 15 15 14 13 12 12 14 14 14 14 14 14 14 14 14 13 13 14 14 14 13 13 13 14 14 13 12 12 14 16 17 18 18 18 18 17 14 10 8 8 8 7 7 7 7 7 6 6 6 5 5 6 7 7 7
15 15 16 16 16 16 16 16 16 16 16 15 14 14 14 14 13 12 11 12 13 14 14 14 14 14 14 14 14 14 13 13 13 13 13 13 13 13 14 13 12 11 12 15 16 17 17 17 17 15 13 9 8 8 7 7 6 6 6 6 6 5 5 4 4 5 6 7 9
15 15 16 16 16 16 16 16 16 15 15 15 14 14 13 12 11 10 10 11 13 14 14 15 14 14 14 14 14 14 14 13 13 13 13 12 12 13 13 13 11 11 11 14 15 16 16 17 16 15 13 10 8 7 7 6 6 6 6 6 5 5 5 4 4 4 5 7 11
15 15 16 16 16 16 16 16 15 14 14 14 14 13 13 12 11 11 11 12 13 13 14 14 14 14 14 14 14 15 14 14 13 13 13 12 12 12 13 12 11 11 11 13 14 15 16 16 16 14 12 9 7 6 6 6 7 7 6 5 5 5 5 4 4 4 5 6 9
14 15 15 15 15 15 16 16 15 14 13 13 13 12 12 11 12 12 12 12 12 12 12 13 14 14 14 13 13 14 14 14 13 12 12 12 12 11 11 11 11 10 10 11 13 14 15 15 15 13 11 8 6 6 6 6 7 7 6 5 5 5 4 4 4 4 4 4 5
Wind_Direction
156 152 153 159 163 167 168 170 170 172 174 176 177 171 156 139 133 131 132 133 133 135 137 138 137 136 137 138 138 138 139 141 142 142 141 139 137 136 135 133 133 134 135 137 138 139 139 139 137 137 137 137 137 137 137 138 138 138 138 139 140 138 136 134 134 131 124 115 107
146 146 150 156 159 162 164 163 167 174 179 180 177 167 149 133 128 128 130 132 133 134 135 135 135 135 135 136 135 136 137 139 140 140 139 139 138 137 134 133 134 136 137 138 139 140 140 139 138 138 137 137 136 136 138 140 139 137 136 136 138 137 135 134 131 123 114 106 102
140 143 147 154 159 161 162 164 171 178 181 181 173 159 139 126 123 124 127 130 131 132 132 133 135 134 133 132 132 132 134 137 138 138 138 139 140 138 135 134 135 137 139 140 141 141 141 140 138 137 138 138 138 138 138 139 138 135 135 136 138 138 136 132 123 113 106 101 98
137 142 149 157 160 160 159 164 175 179 179 171 159 143 127 118 118 120 123 126 128 130 132 134 134 133 131 128 129 130 133 135 137 137 138 139 141 139 136 135 137 138 140 140 141 141 140 139 137 136 136 136 136 137 140 140 135 133 132 135 134 131 126 118 110 104 100 97 95
136 143 151 158 159 157 157 167 176 177 173 158 142 129 119 115 116 119 122 125 129 132 134 134 132 130 128 125 127 129 132 134 136 137 138 140 141 140 138 137 138 139 140 140 141 140 139 137 135 134 135 136 137 138 137 132 126 122 121 118 115 112 109 104 101 99 98 97 94
136 142 148 152 153 155 162 175 176 172 163 147 130 122 118 118 121 123 125 127 128 130 130 130 128 126 124 124 126 129 131 134 136 138 139 140 140 139 138 138 139 139 139 140 140 139 137 135 133 132 133 132 130 127 123 118 115 111 106 101 99 99 101 101 102 102 101 101 99
133 140 145 147 155 164 174 178 170 163 152 136 125 121 120 122 123 124 125 125 126 127 127 126 125 124 124 124 126 128 131 133 135 137 138 139 140 140 139 139 139 139 139 140 139 138 136 133 131 130 128 125 121 116 114 113 111 108 104 100 98 99 102 104 106 106 105 104 102
123 135 143 149 163 174 178 172 161 153 143 129 123 121 121 121 122 123 123 123 125 127 127 125 124 124 123 124 126 128 130 132 133 135 137 139 140 140 140 139 139 139 139 139 137 134 130 126 124 123 121 119 115 114 114 112 110 108 105 103 100 99 101 106 106 107 108 107 104
116 134 146 156 175 182 176 161 152 142 132 123 121 120 120 121 122 122 123 124 126 126 125 123 123 122 122 123 126 128 130 132 133 134 136 139 142 142 141 140 140 140 138 135 130 125 120 116 115 115 115 115 117 116 115 112 110 108 107 106 104 100 99 101 103 105 106 105 103
123 140 152 168 195 190 166 147 138 129 123 119 118 118 119 120 121 122 123 124 123 123 123 123 122 121 121 123 126 128 130 132 133 135 138 142 145 145 143 142 141 139 134 128 122 117 114 113 113 113 113 114 116 115 115 113 111 110 110 110 109 105 101 99 101 103 103 103 102
133 147 162 193 223 190 151 135 127 122 119 117 116 117 118 119 121 122 122 122 120 121 122 122 121 121 122 124 126 128 130 132 134 136 140 146 149 147 143 141 139 134 128 122 118 116 115 115 114 114 113 113 113 114 113 113 112 112 112 113 111 108 105 100 100 101 102 102 101
143 152 169 234 238 173 138 126 121 119 118 117 117 117 118 119 121 122 122 121 120 120 121 121 121 121 122 124 126 128 130 131 133 137 143 150 149 145 140 137 132 126 122 119 119 118 118 118 117 115 114 113 113 114 115 115 114 114 114 114 112 109 107 105 103 102 103 103 103
149 156 179 249 223 154 129 121 118 118 118 118 117 117 118 119 122 123 123 122 121 120 121 121 120 120 121 125 127 129 131 133 136 141 147 153 147 141 135 129 123 120 119 120 120 120 120 119 118 117 115 114 114 116 117 117 117 117 117 116 113 112 110 109 108 106 105 103 104
150 163 198 243 203 146 124 118 117 117 118 118 118 118 118 120 123 124 123 122 121 120 120 120 118 119 122 126 128 130 133 136 140 145 149 149 141 134 128 121 119 119 120 121 120 120 121 121 119 118 117 116 116 117 118 118 119 120 120 119 117 115 114 112 111 109 107 105 105
148 174 216 240 182 137 121 117 117 117 118 118 118 119 120 122 124 124 123 122 121 120 119 119 118 119 121 125 129 132 135 138 144 147 146 141 133 126 121 118 119 120 121 122 121 121 121 121 121 119 118 118 118 118 117 117 118 118 119 118 118 117 115 114 111 110 109 110 109
147 184 219 228 154 129 121 118 117 118 118 119 120 122 123 124 125 124 123 122 120 119 119 119 120 121 123 126 129 132 136 140 144 143 140 132 125 121 119 120 121 122 123 122 121 121 120 120 120 120 120 119 119 118 117 116 115 114 113 112 112 113 112 112 110 110 110 111 111
154 190 211 196 139 125 120 118 118 119 120 121 122 123 124 125 125 124 123 122 121 120 121 121 123 125 127 128 131 133 136 139 140 137 132 124 121 120 121 122 123 123 123 122 121 120 119 118 118 119 119 119 118 117 116 113 110 108 106 105 105 106 107 107 107 108 109 109 110
162 189 195 162 131 122 119 118 119 120 121 122 123 124 124 124 124 123 122 122 122 122 122 123 124 126 128 129 131 132 134 136 135 131 125 121 120 121 121 121 121 121 121 121 120 120 119 118 118 118 118 117 115 112 109 106 103 101 99 98 98 98 99 100 102 104 106 107 109
161 175 169 141 126 120 118 118 119 120 121 121 122 122 122 122 122 121 121 121 122 123 123 123 124 125 126 126 127 128 129 131 128 125 122 120 120 120 120 119 119 118 119 119 119 119 119 119 119 118 116 113 109 105 102 99 98 96 95 93 92 92 93 95 97 100 102 105 105
155 158 150 132 122 119 118 119 119 119 120 120 120 120 120 121 120 119 120 121 122 122 122 123 123 123 122 121 122 123 124 125 124 122 120 119 119 118 117 116 116 116 117 118 119 119 119 119 117 115 112 108 105 102 100 98 97 95 94 92 90 89 91 93 95 96 98 99 97
148 144 135 124 120 118 118 118 118 118 118 118 119 119 119 119 118 118 118 120 121 121 120 121 121 121 120 119 119 121 122 122 122 121 119 118 116 115 115 115 115 116 118 119 119 119 118 116 113 111 109 107 106 105 104 103 100 98 95 93 90 89 89 90 91 91 91 90 87
138 131 124 119 117 117 117 117 117 117 117 117 118 118 118 117 116 116 117 118 118 118 118 118 118 118 118 118 120 121 122 122 121 119 117 115 114 113 113 114 116 117 118 119 117 115 113 111 110 109 109 108 108 108 108 107 105 102 99 96 93 90 87 86 86 86 85 84 82
127 122 117 114 115 115 116 117 117 117 117 117 117 117 117 116 115 115 116 117 117 116 115 114 114 115 116 117 119 120 120 120 118 116 113 112 111 111 111 113 114 115 115 115 113 111 109 108 108 108 108 108 108 108 108 108 108 106 104 101 97 93 89 86 85 84 84 82 82
119 116 114 113 114 115 115 116 116 117 117 117 117 117 116 116 115 115 116 116 115 113 112 110 110 111 113 114 115 116 117 118 115 112 110 109 109 109 109 109 110 110 111 112 113 113 113 112 110 109 108 107 107 107 107 108 109 110 109 107 103 99 93 89 86 86 86 86 86
114 113 113 113 114 115 115 115 116 116 117 117 117 116 116 116 116 116 116 115 112 110 109 109 109 110 111 111 112 113 114 114 113 111 110 108 108 108 107 107 106 107 109 112 114 116 117 118 117 114 111 108 107 107 107 108 110 112 112 112 110 106 101 94 90 88 89 91 91
111 112 113 114 114 114 114 114 115 116 116 116 116 116 115 115 115 115 113 112 110 110 110 111 110 110 111 111 112 112 112 111 111 111 110 109 107 105 104 104 105 106 111 115 117 117 117 117 116 115 114 113 113 112 111 109 109 110 111 112 112 110 107 103 98 96 94 94 94
110 111 112 113 113 113 113 114 114 115 115 116 116 115 115 115 114 113 112 111 111 111 111 111 111 111 111 112 113 113 112 111 109 109 108 107 106 105 104 104 106 109 113 117 117 116 116 115 115 115 115 116 116 116 115 113 111 110 109 110 110 110 110 110 109 107 104 100 96
109 110 110 110 111 111 112 113 113 114 115 115 115 114 114 113 112 112 112 112 113 112 112 112 112 112 111 112 114 114 113 111 108 106 105 103 104 104 105 105 107 111 114 116 115 114 114 114 114 115 115 115 114 115 115 117 115 114 112 111 111 111 112 114 115 115 113 109 105
107 108 108 108 109 110 110 111 111 112 113 113 113 112 112 111 112 112 113 113 114 114 114 115 115 115 115 116 115 113 110 108 107 105 103 102 102 102 104 105 107 110 111 112 111 112 112 113 114 115 115 115 115 116 117 118 118 117 115 114 114 115 116 118 119 120 120 117 115
105 105 106 106 106 107 108 108 109 109 110 111 110 110 110 110 111 112 112 112 113 113 115 117 118 118 118 118 115 111 108 106 106 105 105 105 104 104 104 105 105 107 108 109 110 111 112 113 114 114 114 114 114 115 117 119 118 118 117 116 117 118 119 121 122 123 124 123 121
102 102 103 103 103 104 104 105 106 107 108 108 108 108 108 108 109 109 109 109 110 111 113 115 115 115 114 112 110 108 107 106 106 106 106 106 106 105 104 102 102 104 106 109 110 112 113 113 114 114 114 115 115 115 117 117 115 115 115 117 119 120 122 122 124 126 127 127 124
99 100 100 100 100 101 101 102 103 105 105 106 105 105 105 105 105 105 105 107 108 110 111 112 111 110 108 106 105 104 104 105 105 106 107 107 106 104 102 100 100 104 108 111 112 113 113 114 114 114 114 113 112 112 112 111 110 109 110 113 118 121 123 125 126 128 128 127 125
96 97 97 97 97 98 99 100 101 102 103 103 103 104 104 103 103 103 103 105 107 109 110 110 109 108 107 106 104 103 102 102 104 105 106 106 105 104 101 99 100 105 110 113 113 114 114 114 114 113 112 110 108 107 107 107 107 107 108 110 114 119 122 124 127 128 127 124 122
95 95 95 94 95 96 97 98 100 101 102 101 101 102 102 102 102 102 103 104 105 105 105 105 105 105 105 104 104 103 103 102 103 104 105 105 104 103 102 101 104 109 113 115 115 115 115 115 114 112 110 107 104 103 103 104 106 108 110 112 114 117 121 124 125 125 123 121 121
94 94 93 93 94 95 96 97 98 98 99 99 99 99 99 99 100 101 103 104 103 101 100 99 99 99 99 98 100 101 103 104 104 104 104 105 104 103 103 103 107 112 115 116 117 117 116 115 113 111 109 105 102 101 101 103 106 109 112 114 115 116 116 117 117 117 117 118 121
92 93 93 93 93 93 94 94 95 95 95 95 96 96 96 96 97 99 102 103 102 100 99 98 97 96 96 96 97 99 102 105 105 104 104 104 105 105 106 107 109 113 116 117 117 117 116 115 113 111 108 104 102 102 103 105 107 109 111 111 109 107 103 100 101 105 110 115 121
89 91 92 91 91 91 91 91 91 91 91 92 94 95 96 95 96 98 100 101 101 100 98 97 96 95 96 97 97 98 99 102 103 104 104 105 107 109 110 111 112 114 116 118 118 116 115 114 112 110 108 106 106 106 107 107 108 108 107 104 99 93 88 85 88 95 103 111 118
85 87 88 88 88 88 88 88 88 89 90 91 92 93 94 95 96 96 97 98 99 99 97 95 94 95 96 97 97 96 96 97 101 103 106 107 110 113 114 114 115 116 117 118 117 115 114 112 111 111 110 109 110 112 112 111 111 109 107 103 96 87 80 78 80 89 99 110 117
82 84 85 86 87 88 88 88 88 89 90 91 91 91 91 93 94 95 94 94 96 97 97 96 96 97 97 98 98 97 97 96 99 103 106 110 113 115 116 116 117 118 117 117 116 114 113 113 113 112 112 110 112 114 115 115 114 111 109 104 98 89 81 76 77 85 97 109 118
81 83 84 86 87 88 88 87 88 88 90 91 91 91 92 93 94 94 93 91 92 93 95 96 97 98 98 98 98 98 98 98 99 102 106 109 112 114 115 116 117 118 117 116 115 114 114 114 114 114 113 111 113 115 116 117 115 114 112 108 105 98 91 83 82 86 95 107 118
81 82 83 83 84 85 85 86 85 86 87 88 90 92 93 95 95 94 93 92 92 92 93 95 96 96 96 96 97 97 98 98 99 101 104 107 109 111 113 115 116 117 116 115 115 115 115 115 116 116 116 114 115 118 119 120 119 119 119 118 115 112 108 102 97 94 95 101 115